Погода в Кулагине

Россия / Нижегородская область     56°45′04″N   44°15′44″E
темп.,
°C
ветер,
м/с
пор.,
м/с
влажн.,
%
обл.,
%
осадки,
мм/ч
давл.,
гПа
погр.,
м
22 октября, пт
пт2200:00+9юз41296100 0.0 996467
03:00+9ююз51393100 0.0 994577
06:00+9юз61688100 0.0 993858
09:00+9юз61484100 0.0 993857
12:00+11юз61378100 0.0 9931143
15:00+12юз6137633 0.1 9941275
18:00+10зюз716805 1.1 9951332
21:00+7зюз613785 1.3 9991085
23 октября, сб
сб2300:00+7зюз6137856 0.0 10001088
03:00+6зюз51380100 0.0 1002839
06:00+5зюз5128666 0.0 1003723
09:00+6юз51083100 0.0 1004766
12:00+8юз597345 0.0 10041058
15:00+7юз497094 0.1 10051171
18:00+7юз4973100 0.1 1005860
21:00+5юз4791100 0.5 1005873
24 октября, вс
вс2400:00+4зюз3109169 1.2 1005642
03:00+5зюз4881100 1.3 1005967
06:00+4юз5987100 0.1 1006832
09:00+3зюз5986100 0.1 1007578
12:00+4юз4677100 0.0 1008838
15:00+3юз3696100 0.1 1009486
18:00+2зюз2597100 0.1 1010444
21:00+3зюз2397100 0.3 1011595
25 октября, пн
пн2500:00+3сз239299 0.1 1013378
03:00+2сз3997100 1.2 1014594
06:000с5109096 1.7 1018832
09:000ссз511795 1.7 1021699
12:00+2ссз58605 0.0 10231058
15:00+2сз48645 0.0 10241100
18:00−1зсз397699 0.0 1026259
21:00−2зсз268264 0.0 1029144
26 октября, вт
вт2600:00−1зюз278165 0.0 1029218
03:00−1юз4117494 0.0 1028447
06:000юз51371100 0.0 1026626
09:00+1зюз61463100 0.0 1025637
12:00+3зюз6135680 0.0 1023762
15:00+4зюз61256100 0.0 1022821
18:00+2зюз51362100 0.0 1021682
21:00+2зюз51366100 0.0 1020624